| time (UTC) | temp F | wind direction | speed MPH | gust MPH | rain 1hr in | rain 24hr in | rain mn in | humidity % | barometer mb |
| 20260901045558 | 74 | 30 | 2.0 | 4.0 | 0.00 | 0.40 | 0.40 | 77 | 1017.1 |
| 20260901045058 | 74 | 21 | 1.0 | 4.0 | 0.00 | 0.40 | 0.40 | 76 | 1017.2 |
| 20260901044558 | 75 | 0 | 0.0 | 2.0 | 0.00 | 0.40 | 0.40 | 75 | 1017.2 |
| 20260901044100 | 75 | 144 | 0.0 | 0.0 | 0.00 | 0.40 | 0.40 | 74 | 1017.2 |
| 20260901044056 | 75 | 144 | 0.0 | 0.0 | 0.00 | 0.40 | 0.40 | 72 | 1017.1 |
| 20260901043059 | 75 | 144 | 0.0 | 0.0 | 0.00 | 0.40 | 0.40 | 72 | 1017.1 |
| 20260901042558 | 76 | 144 | 0.0 | 0.0 | 0.00 | 0.40 | 0.40 | 72 | 1017.2 |
| 20260901042057 | 76 | 144 | 0.0 | 0.0 | 0.00 | 0.40 | 0.40 | 71 | 1017.2 |
| 20260901041558 | 76 | 146 | 0.0 | 1.0 | 0.00 | 0.40 | 0.40 | 71 | 1017.3 |
| 20260901041059 | 76 | 135 | 0.0 | 2.0 | 0.00 | 0.40 | 0.40 | 70 | 1017.3 |
| 20260901040557 | 76 | 141 | 0.0 | 2.0 | 0.00 | 0.40 | 0.40 | 69 | 1017.2 |
| 20260901040059 | 76 | 147 | 0.0 | 3.0 | 0.00 | 0.40 | 0.40 | 68 | 1017.2 |
| 20260901035559 | 76 | 141 | 1.0 | 3.0 | 0.00 | 0.40 | 0.40 | 68 | 1017.0 |
| 20260901035049 | 76 | 127 | 0.0 | 2.0 | 0.00 | 0.40 | 0.40 | 68 | 1017.0 |
| 20260901034816 | 76 | 174 | 0.0 | 1.0 | 0.00 | 0.40 | 0.40 | 68 | 1017.0 |
| 20260901034050 | 76 | 146 | 0.0 | 2.0 | 0.00 | 0.40 | 0.40 | 67 | 1017.0 |
| 20260901033806 | 76 | 155 | 0.0 | 2.0 | 0.00 | 0.40 | 0.40 | 68 | 1016.8 |
| 20260901033050 | 76 | 207 | 0.0 | 2.0 | 0.00 | 0.40 | 0.40 | 68 | 1016.8 |
| 20260901032549 | 76 | 86 | 0.0 | 0.0 | 0.00 | 0.40 | 0.40 | 71 | 1016.7 |
| 20260901032048 | 76 | 86 | 0.0 | 0.0 | 0.00 | 0.40 | 0.40 | 71 | 1016.7 |
| 20260901031547 | 76 | 86 | 0.0 | 0.0 | 0.00 | 0.40 | 0.40 | 70 | 1016.8 |
| 20260901031048 | 76 | 86 | 0.0 | 0.0 | 0.00 | 0.40 | 0.40 | 68 | 1016.6 |
| 20260901030549 | 76 | 86 | 0.0 | 0.0 | 0.00 | 0.40 | 0.40 | 69 | 1016.4 |
| 20260901030047 | 76 | 86 | 0.0 | 0.0 | 0.00 | 0.40 | 0.40 | 69 | 1016.3 |
| 20260901025552 | 76 | 86 | 0.0 | 0.0 | 0.00 | 0.40 | 0.40 | 68 | 1016.3 |
| 20260901025048 | 77 | 86 | 1.0 | 3.0 | 0.00 | 0.40 | 0.40 | 68 | 1016.3 |
| 20260901024549 | 77 | 86 | 1.0 | 4.0 | 0.00 | 0.40 | 0.40 | 68 | 1016.2 |
| 20260901024047 | 77 | 108 | 0.0 | 4.0 | 0.00 | 0.40 | 0.40 | 67 | 1016.0 |
| 20260901023543 | 77 | 75 | 0.0 | 0.0 | 0.00 | 0.40 | 0.40 | 67 | 1016.1 |
| 20260901023530 | 77 | 75 | 0.0 | 0.0 | 0.00 | 0.40 | 0.40 | 67 | 1016.0 |
| 20260901022802 | 77 | 91 | 0.0 | 0.0 | 0.00 | 0.40 | 0.40 | 66 | 1016.0 |
| 20260901022254 | 77 | 220 | 0.0 | 0.0 | 0.00 | 0.40 | 0.40 | 67 | 1016.0 |
| 20260901021535 | 77 | 220 | 0.0 | 0.0 | 0.00 | 0.40 | 0.40 | 66 | 1015.9 |
| 20260901021036 | 77 | 220 | 0.0 | 0.0 | 0.00 | 0.40 | 0.40 | 66 | 1015.8 |
| 20260901020535 | 77 | 220 | 0.0 | 0.0 | 0.00 | 0.40 | 0.40 | 65 | 1015.8 |
| 20260901020035 | 77 | 220 | 0.0 | 0.0 | 0.00 | 0.40 | 0.40 | 65 | 1015.5 |
| 20260901015536 | 78 | 220 | 0.0 | 0.0 | 0.00 | 0.40 | 0.40 | 64 | 1015.5 |
| 20260901015037 | 78 | 220 | 0.0 | 0.0 | 0.00 | 0.40 | 0.40 | 64 | 1015.3 |
| 20260901014534 | 78 | 220 | 0.0 | 0.0 | 0.00 | 0.40 | 0.40 | 63 | 1015.3 |
| 20260901014031 | 78 | 219 | 0.0 | 0.0 | 0.00 | 0.40 | 0.40 | 62 | 1015.2 |
| 20260901013531 | 78 | 219 | 0.0 | 0.0 | 0.00 | 0.40 | 0.40 | 61 | 1015.0 |
| 20260901013033 | 78 | 219 | 0.0 | 0.0 | 0.00 | 0.40 | 0.40 | 61 | 1015.0 |
| 20260901012535 | 78 | 219 | 0.0 | 0.0 | 0.00 | 0.40 | 0.40 | 61 | 1014.9 |
| 20260901012030 | 79 | 219 | 0.0 | 0.0 | 0.00 | 0.40 | 0.40 | 61 | 1015.0 |
| 20260901011529 | 79 | 220 | 0.0 | 0.0 | 0.00 | 0.40 | 0.40 | 60 | 1015.0 |
| 20260901011027 | 79 | 220 | 0.0 | 0.0 | 0.00 | 0.40 | 0.40 | 61 | 1015.0 |
| 20260901010529 | 79 | 221 | 0.0 | 0.0 | 0.00 | 0.40 | 0.40 | 60 | 1014.9 |
| 20260901010029 | 79 | 229 | 0.0 | 0.0 | 0.00 | 0.40 | 0.40 | 60 | 1014.9 |
| 20260901005526 | 80 | 229 | 0.0 | 0.0 | 0.00 | 0.40 | 0.40 | 59 | 1014.9 |
| 20260901005257 | 80 | 229 | 0.0 | 0.0 | 0.00 | 0.40 | 0.40 | 58 | 1014.8 |
| 20260901004524 | 80 | 229 | 0.0 | 0.0 | 0.00 | 0.40 | 0.40 | 55 | 1014.8 |
| 20260901004026 | 80 | 229 | 0.0 | 0.0 | 0.00 | 0.40 | 0.40 | 53 | 1014.8 |
| 20260901003521 | 81 | 229 | 0.0 | 0.0 | 0.00 | 0.40 | 0.40 | 53 | 1014.9 |
| 20260901003011 | 81 | 229 | 0.0 | 0.0 | 0.00 | 0.40 | 0.40 | 54 | 1014.9 |
| 20260901002952 | 81 | 243 | 0.0 | 1.0 | 0.00 | 0.40 | 0.40 | 53 | 1014.9 |
| 20260901001959 | 82 | 250 | 0.0 | 1.0 | 0.00 | 0.40 | 0.40 | 53 | 1014.8 |
| 20260901001449 | 82 | 229 | 0.0 | 0.0 | 0.00 | 0.40 | 0.40 | 52 | 1014.9 |
| 20260901000943 | 82 | 230 | 0.0 | 3.0 | 0.00 | 0.40 | 0.40 | 52 | 1014.8 |
| 20260901000655 | 82 | 230 | 1.0 | 3.0 | 0.00 | 0.40 | 0.40 | 54 | 1015.0 |
| 20260831235927 | 82 | 169 | 1.0 | 4.0 | 0.00 | 0.40 | 0.40 | 53 | 1015.0 |
| 20260831235420 | 82 | 143 | 2.0 | 4.0 | 0.00 | 0.40 | 0.40 | 53 | 1015.2 |
| 20260831235359 | 81 | 110 | 2.0 | 5.0 | 0.00 | 0.40 | 0.40 | 55 | 1015.0 |
| 20260831234404 | 80 | 176 | 2.0 | 5.0 | 0.00 | 0.40 | 0.40 | 55 | 1015.1 |
| 20260831234124 | 80 | 48 | 3.0 | 5.0 | 0.00 | 0.40 | 0.40 | 57 | 1015.1 |
| 20260831233353 | 80 | 110 | 3.0 | 6.0 | 0.00 | 0.40 | 0.40 | 57 | 1015.0 |
| 20260831233104 | 80 | 69 | 3.0 | 6.0 | 0.00 | 0.40 | 0.40 | 57 | 1015.2 |
| 20260831232604 | 80 | 92 | 4.0 | 8.0 | 0.00 | 0.40 | 0.40 | 59 | 1015.2 |
| 20260831231831 | 79 | 98 | 4.0 | 9.0 | 0.00 | 0.40 | 0.40 | 60 | 1015.2 |
| 20260831231320 | 79 | 71 | 4.0 | 9.0 | 0.00 | 0.40 | 0.40 | 61 | 1015.2 |
| 20260831230813 | 79 | 76 | 3.0 | 9.0 | 0.00 | 0.40 | 0.40 | 62 | 1015.4 |
| 20260831230308 | 78 | 80 | 3.0 | 9.0 | 0.00 | 0.40 | 0.40 | 64 | 1015.4 |
| 20260831225759 | 78 | 63 | 3.0 | 7.0 | 0.00 | 0.40 | 0.40 | 64 | 1015.4 |
| 20260831225251 | 77 | 82 | 3.0 | 7.0 | 0.00 | 0.40 | 0.40 | 66 | 1015.7 |
| 20260831224747 | 76 | 47 | 3.0 | 8.0 | 0.00 | 0.40 | 0.40 | 67 | 1015.9 |
| 20260831224237 | 76 | 153 | 4.0 | 8.0 | 0.00 | 0.40 | 0.40 | 69 | 1015.9 |
| 20260831223731 | 76 | 79 | 4.0 | 9.0 | 0.00 | 0.40 | 0.40 | 71 | 1016.0 |
| 20260831223225 | 75 | 82 | 4.0 | 9.0 | 0.00 | 0.40 | 0.40 | 72 | 1015.9 |
| 20260831222715 | 75 | 123 | 3.0 | 8.0 | 0.00 | 0.40 | 0.40 | 75 | 1015.9 |
| 20260831222209 | 75 | 96 | 4.0 | 11.0 | 0.00 | 0.40 | 0.40 | 74 | 1016.1 |
| 20260831221703 | 74 | 154 | 7.0 | 15.0 | 0.00 | 0.40 | 0.40 | 73 | 1016.1 |
| 20260831221151 | 74 | 74 | 9.0 | 18.0 | 0.00 | 0.40 | 0.40 | 73 | 1016.2 |
| 20260831220646 | 74 | 49 | 8.0 | 18.0 | 0.00 | 0.40 | 0.40 | 73 | 1016.3 |
| 20260831220141 | 74 | 60 | 7.0 | 14.0 | 0.00 | 0.40 | 0.40 | 76 | 1016.4 |
| 20260831215631 | 74 | 77 | 5.0 | 12.0 | 0.00 | 0.40 | 0.40 | 76 | 1016.5 |
| 20260831215342 | 73 | 85 | 4.0 | 12.0 | 0.01 | 0.40 | 0.40 | 77 | 1016.7 |
| 20260831214619 | 73 | 24 | 4.0 | 10.0 | 0.02 | 0.40 | 0.40 | 77 | 1016.8 |
| 20260831214109 | 72 | 23 | 5.0 | 10.0 | 0.03 | 0.40 | 0.40 | 80 | 1016.8 |
| 20260831213602 | 71 | 80 | 4.0 | 10.0 | 0.04 | 0.40 | 0.40 | 81 | 1016.7 |
| 20260831213056 | 71 | 65 | 1.0 | 5.0 | 0.05 | 0.40 | 0.40 | 82 | 1017.2 |
| 20260831212547 | 71 | 322 | 1.0 | 7.0 | 0.06 | 0.40 | 0.40 | 84 | 1017.6 |
| 20260831212040 | 71 | 314 | 3.0 | 7.0 | 0.07 | 0.40 | 0.40 | 83 | 1017.7 |
| 20260831211534 | 71 | 70 | 4.0 | 11.0 | 0.08 | 0.40 | 0.40 | 84 | 1017.3 |
| 20260831211025 | 70 | 55 | 5.0 | 14.0 | 0.09 | 0.40 | 0.40 | 85 | 1017.3 |
| 20260831210741 | 70 | 53 | 5.0 | 14.0 | 0.10 | 0.40 | 0.40 | 86 | 1017.6 |
| 20260831210230 | 70 | 32 | 4.0 | 10.0 | 0.12 | 0.40 | 0.40 | 88 | 1017.8 |
| 20260831205503 | 70 | 42 | 4.0 | 9.0 | 0.12 | 0.39 | 0.39 | 89 | 1018.0 |
| 20260831204957 | 70 | 47 | 3.0 | 8.0 | 0.12 | 0.38 | 0.38 | 90 | 1018.6 |
| 20260831204450 | 70 | 9 | 3.0 | 8.0 | 0.12 | 0.37 | 0.37 | 90 | 1018.8 |
| 20260831203941 | 70 | 30 | 3.0 | 9.0 | 0.13 | 0.36 | 0.37 | 90 | 1019.0 |
| 20260831203435 | 70 | 62 | 4.0 | 10.0 | 0.19 | 0.36 | 0.36 | 89 | 1019.2 |
| 20260831202929 | 69 | 70 | 3.0 | 10.0 | 0.26 | 0.35 | 0.35 | 89 | 1019.3 |
| 20260831202641 | 69 | 92 | 3.0 | 8.0 | 0.26 | 0.34 | 0.34 | 90 | 1019.5 |
| 20260831201912 | 69 | 73 | 4.0 | 9.0 | 0.25 | 0.33 | 0.33 | 90 | 1019.7 |
| 20260831201407 | 69 | 89 | 4.0 | 9.0 | 0.24 | 0.32 | 0.32 | 89 | 1019.9 |
| 20260831200906 | 69 | 71 | 3.0 | 7.0 | 0.22 | 0.30 | 0.31 | 89 | 1020.1 |
| 20260831200406 | 69 | 61 | 2.0 | 5.0 | 0.22 | 0.29 | 0.29 | 88 | 1020.3 |
| 20260831195904 | 69 | 86 | 2.0 | 4.0 | 0.20 | 0.27 | 0.28 | 88 | 1020.5 |
| 20260831195401 | 69 | 98 | 2.0 | 4.0 | 0.20 | 0.27 | 0.27 | 88 | 1020.5 |
| 20260831195117 | 69 | 61 | 1.0 | 3.0 | 0.20 | 0.26 | 0.26 | 89 | 1020.4 |
| 20260831194356 | 69 | 106 | 0.0 | 3.0 | 0.20 | 0.25 | 0.25 | 88 | 1020.7 |
| 20260831193857 | 69 | 130 | 1.0 | 4.0 | 0.20 | 0.23 | 0.23 | 88 | 1021.0 |
| 20260831193400 | 69 | 115 | 1.0 | 4.0 | 0.13 | 0.15 | 0.16 | 87 | 1020.8 |
| 20260831192855 | 69 | 178 | 0.0 | 4.0 | 0.07 | 0.09 | 0.09 | 86 | 1021.0 |
| 20260831192355 | 69 | 173 | 1.0 | 4.0 | 0.06 | 0.08 | 0.08 | 87 | 1021.0 |
| 20260831191858 | 69 | 214 | 1.0 | 4.0 | 0.06 | 0.08 | 0.08 | 86 | 1021.1 |
| 20260831191355 | 69 | 357 | 2.0 | 8.0 | 0.06 | 0.08 | 0.08 | 87 | 1021.0 |
| 20260831190855 | 69 | 5 | 4.0 | 8.0 | 0.06 | 0.08 | 0.08 | 87 | 1020.6 |
| 20260831190354 | 69 | 290 | 4.0 | 10.0 | 0.05 | 0.07 | 0.07 | 86 | 1020.5 |
| 20260831185855 | 68 | 281 | 5.0 | 13.0 | 0.05 | 0.07 | 0.07 | 86 | 1020.5 |
| 20260831185347 | 68 | 287 | 6.0 | 16.0 | 0.05 | 0.07 | 0.07 | 87 | 1020.4 |
| 20260831184849 | 69 | 298 | 7.0 | 16.0 | 0.04 | 0.06 | 0.06 | 86 | 1020.1 |
| 20260831184346 | 69 | 323 | 8.0 | 16.0 | 0.03 | 0.05 | 0.05 | 84 | 1020.0 |
| 20260831183847 | 70 | 264 | 8.0 | 16.0 | 0.00 | 0.02 | 0.02 | 81 | 1019.9 |
| 20260831183827 | 71 | 352 | 8.0 | 15.0 | 0.00 | 0.02 | 0.02 | 79 | 1019.9 |
| 20260831182847 | 71 | 288 | 9.0 | 17.0 | 0.00 | 0.02 | 0.02 | 79 | 1019.9 |
| 20260831182830 | 71 | 246 | 10.0 | 17.0 | 0.00 | 0.02 | 0.02 | 79 | 1020.0 |
| 20260831181847 | 71 | 245 | 9.0 | 17.0 | 0.00 | 0.02 | 0.02 | 77 | 1020.1 |
| 20260831181345 | 72 | 224 | 8.0 | 15.0 | 0.00 | 0.02 | 0.02 | 76 | 1019.9 |
| 20260831180843 | 72 | 262 | 7.0 | 13.0 | 0.00 | 0.02 | 0.02 | 75 | 1019.4 |
| 20260831180607 | 73 | 285 | 7.0 | 13.0 | 0.00 | 0.02 | 0.02 | 74 | 1019.2 |
| 20260831175841 | 73 | 257 | 8.0 | 14.0 | 0.00 | 0.02 | 0.02 | 73 | 1019.3 |
| 20260831175342 | 74 | 265 | 9.0 | 17.0 | 0.00 | 0.02 | 0.02 | 72 | 1019.5 |
| 20260831174842 | 74 | 274 | 9.0 | 19.0 | 0.00 | 0.02 | 0.02 | 70 | 1019.7 |
| 20260831174340 | 75 | 282 | 9.0 | 19.0 | 0.00 | 0.02 | 0.02 | 71 | 1019.5 |
| 20260831173842 | 75 | 259 | 10.0 | 22.0 | 0.00 | 0.02 | 0.02 | 70 | 1019.2 |
| 20260831173341 | 76 | 262 | 10.0 | 22.0 | 0.00 | 0.02 | 0.02 | 69 | 1019.3 |
| 20260831172840 | 76 | 221 | 8.0 | 17.0 | 0.00 | 0.02 | 0.02 | 67 | 1019.3 |
| 20260831172342 | 77 | 256 | 7.0 | 15.0 | 0.00 | 0.02 | 0.02 | 68 | 1019.2 |
| 20260831171842 | 78 | 282 | 8.0 | 15.0 | 0.00 | 0.02 | 0.02 | 63 | 1019.2 |
| 20260831171341 | 78 | 252 | 6.0 | 15.0 | 0.00 | 0.02 | 0.02 | 60 | 1019.1 |
| 20260831170840 | 78 | 292 | 5.0 | 13.0 | 0.00 | 0.02 | 0.02 | 62 | 1018.9 |
| 20260831170340 | 78 | 304 | 6.0 | 13.0 | 0.00 | 0.02 | 0.02 | 66 | 1018.8 |
| 20260831165841 | 78 | 300 | 6.0 | 12.0 | 0.00 | 0.02 | 0.02 | 68 | 1018.7 |
| 20260831165342 | 78 | 268 | 6.0 | 12.0 | 0.00 | 0.02 | 0.02 | 67 | 1018.6 |
| 20260831164840 | 79 | 277 | 5.0 | 11.0 | 0.00 | 0.02 | 0.02 | 65 | 1018.4 |
| 20260831164341 | 80 | 288 | 4.0 | 11.0 | 0.00 | 0.02 | 0.02 | 64 | 1018.2 |
| 20260831164331 | 81 | 286 | 3.0 | 7.0 | 0.00 | 0.02 | 0.02 | 58 | 1018.2 |
| 20260831163342 | 81 | 288 | 3.0 | 6.0 | 0.00 | 0.02 | 0.02 | 55 | 1018.0 |
| 20260831162841 | 81 | 288 | 4.0 | 7.0 | 0.00 | 0.02 | 0.02 | 57 | 1017.9 |
| 20260831162341 | 82 | 341 | 4.0 | 11.0 | 0.00 | 0.02 | 0.02 | 57 | 1017.7 |
| 20260831161841 | 83 | 359 | 4.0 | 11.0 | 0.00 | 0.02 | 0.02 | 54 | 1017.6 |
| 20260831161340 | 83 | 45 | 4.0 | 11.0 | 0.00 | 0.02 | 0.02 | 51 | 1017.5 |
| 20260831160841 | 82 | 53 | 5.0 | 14.0 | 0.00 | 0.02 | 0.02 | 51 | 1017.4 |
| 20260831160340 | 82 | 61 | 7.0 | 16.0 | 0.00 | 0.02 | 0.02 | 52 | 1017.5 |
| 20260831155341 | 81 | 43 | 9.0 | 17.0 | 0.00 | 0.02 | 0.02 | 53 | 1017.4 |
| 20260831154842 | 80 | 89 | 9.0 | 17.0 | 0.00 | 0.02 | 0.02 | 53 | 1017.4 |
| 20260831154342 | 80 | 78 | 7.0 | 14.0 | 0.00 | 0.02 | 0.02 | 54 | 1017.4 |
| 20260831153838 | 80 | 75 | 6.0 | 14.0 | 0.00 | 0.02 | 0.02 | 54 | 1017.5 |
| 20260831153340 | 79 | 71 | 5.0 | 14.0 | 0.00 | 0.02 | 0.02 | 57 | 1017.6 |
| 20260831153059 | 78 | 136 | 3.0 | 8.0 | 0.00 | 0.02 | 0.02 | 67 | 1017.6 |
| 20260831152339 | 77 | 139 | 3.0 | 7.0 | 0.00 | 0.02 | 0.02 | 71 | 1017.7 |
| 20260831151841 | 76 | 172 | 4.0 | 8.0 | 0.00 | 0.02 | 0.02 | 72 | 1017.8 |
| 20260831151341 | 76 | 142 | 5.0 | 10.0 | 0.00 | 0.02 | 0.02 | 73 | 1017.8 |
| 20260831150840 | 75 | 136 | 5.0 | 10.0 | 0.00 | 0.02 | 0.02 | 75 | 1017.8 |
| 20260831150337 | 75 | 124 | 4.0 | 9.0 | 0.00 | 0.02 | 0.02 | 75 | 1017.7 |
| 20260831145832 | 75 | 147 | 4.0 | 10.0 | 0.00 | 0.02 | 0.02 | 76 | 1017.6 |
| 20260831145325 | 75 | 128 | 4.0 | 10.0 | 0.00 | 0.02 | 0.02 | 76 | 1017.5 |
| 20260831144825 | 75 | 122 | 3.0 | 9.0 | 0.00 | 0.02 | 0.02 | 77 | 1017.4 |
| 20260831144323 | 75 | 177 | 3.0 | 9.0 | 0.00 | 0.02 | 0.02 | 76 | 1017.2 |
| 20260831143823 | 75 | 139 | 3.0 | 6.0 | 0.00 | 0.02 | 0.02 | 78 | 1017.2 |
| 20260831143323 | 74 | 207 | 2.0 | 6.0 | 0.00 | 0.02 | 0.02 | 79 | 1017.1 |
| 20260831142827 | 74 | 195 | 1.0 | 3.0 | 0.00 | 0.02 | 0.02 | 77 | 1017.0 |
| 20260831142326 | 74 | 197 | 1.0 | 3.0 | 0.00 | 0.02 | 0.02 | 79 | 1017.0 |
| 20260831141823 | 74 | 140 | 1.0 | 3.0 | 0.00 | 0.02 | 0.02 | 79 | 1017.0 |
| 20260831141320 | 73 | 151 | 2.0 | 3.0 | 0.00 | 0.02 | 0.02 | 79 | 1016.8 |
| 20260831140822 | 73 | 169 | 1.0 | 4.0 | 0.00 | 0.02 | 0.02 | 79 | 1016.8 |
| 20260831140322 | 73 | 139 | 2.0 | 5.0 | 0.00 | 0.02 | 0.02 | 80 | 1016.8 |
| 20260831135820 | 72 | 117 | 2.0 | 5.0 | 0.00 | 0.02 | 0.02 | 81 | 1017.1 |
| 20260831135318 | 72 | 113 | 1.0 | 5.0 | 0.00 | 0.02 | 0.02 | 81 | 1017.1 |
| 20260831134818 | 71 | 150 | 0.0 | 3.0 | 0.00 | 0.02 | 0.02 | 83 | 1017.1 |
| 20260831134320 | 71 | 143 | 1.0 | 4.0 | 0.00 | 0.02 | 0.02 | 84 | 1017.0 |
| 20260831133815 | 71 | 240 | 2.0 | 5.0 | 0.00 | 0.02 | 0.02 | 85 | 1017.0 |
| 20260831133308 | 71 | 138 | 2.0 | 5.0 | 0.00 | 0.02 | 0.02 | 84 | 1017.0 |
| 20260831133022 | 71 | 145 | 1.0 | 4.0 | 0.00 | 0.02 | 0.02 | 85 | 1017.1 |
| 20260831132252 | 71 | 141 | 0.0 | 2.0 | 0.01 | 0.02 | 0.02 | 85 | 1017.0 |
| 20260831131751 | 71 | 132 | 0.0 | 2.0 | 0.01 | 0.02 | 0.02 | 85 | 1017.0 |
| 20260831131247 | 71 | 76 | 2.0 | 7.0 | 0.02 | 0.02 | 0.02 | 85 | 1017.0 |
| 20260831130745 | 71 | 20 | 3.0 | 8.0 | 0.02 | 0.02 | 0.02 | 85 | 1017.1 |
| 20260831130245 | 70 | 18 | 3.0 | 8.0 | 0.02 | 0.02 | 0.02 | 84 | 1017.1 |
| 20260831130232 | 70 | 302 | 2.0 | 7.0 | 0.02 | 0.02 | 0.02 | 85 | 1017.1 |
| 20260831125244 | 70 | 311 | 2.0 | 7.0 | 0.02 | 0.02 | 0.02 | 85 | 1017.3 |
| 20260831124746 | 70 | 271 | 4.0 | 11.0 | 0.02 | 0.02 | 0.02 | 85 | 1017.5 |
| 20260831124244 | 70 | 295 | 5.0 | 11.0 | 0.02 | 0.02 | 0.02 | 84 | 1017.6 |
| 20260831123750 | 70 | 269 | 5.0 | 14.0 | 0.02 | 0.02 | 0.02 | 85 | 1017.6 |
| 20260831123246 | 70 | 278 | 5.0 | 14.0 | 0.02 | 0.02 | 0.02 | 85 | 1017.4 |
| 20260831123012 | 71 | 301 | 5.0 | 10.0 | 0.02 | 0.02 | 0.02 | 85 | 1017.7 |
| 20260831122244 | 71 | 259 | 6.0 | 10.0 | 0.01 | 0.01 | 0.01 | 84 | 1017.7 |
| 20260831121744 | 71 | 281 | 6.0 | 12.0 | 0.01 | 0.01 | 0.01 | 82 | 1017.5 |
| 20260831121245 | 71 | 252 | 5.0 | 12.0 | 0.00 | 0.00 | 0.00 | 80 | 1017.7 |
| 20260831120744 | 72 | 316 | 5.0 | 12.0 | 0.00 | 0.00 | 0.00 | 79 | 1017.7 |
| 20260831120242 | 72 | 281 | 5.0 | 12.0 | 0.00 | 0.00 | 0.00 | 79 | 1017.6 |
| 20260831115742 | 73 | 263 | 5.0 | 12.0 | 0.00 | 0.00 | 0.00 | 78 | 1017.1 |
| 20260831115240 | 73 | 281 | 7.0 | 15.0 | 0.00 | 0.00 | 0.00 | 77 | 1017.1 |
| 20260831114740 | 73 | 269 | 9.0 | 16.0 | 0.00 | 0.00 | 0.00 | 76 | 1016.7 |
| 20260831114505 | 74 | 273 | 10.0 | 21.0 | 0.00 | 0.00 | 0.00 | 74 | 1016.6 |
| 20260831113738 | 74 | 257 | 9.0 | 21.0 | 0.00 | 0.00 | 0.00 | 70 | 1016.5 |
| 20260831113238 | 76 | 238 | 9.0 | 16.0 | 0.00 | 0.00 | 0.00 | 69 | 1016.3 |
| 20260831112738 | 77 | 229 | 10.0 | 24.0 | 0.00 | 0.00 | 0.00 | 66 | 1016.0 |
| 20260831112237 | 78 | 224 | 9.0 | 24.0 | 0.00 | 0.00 | 0.00 | 62 | 1016.1 |
| 20260831111736 | 81 | 290 | 5.0 | 22.0 | 0.00 | 0.00 | 0.00 | 54 | 1015.9 |
| 20260831111238 | 82 | 208 | 2.0 | 5.0 | 0.00 | 0.00 | 0.00 | 50 | 1015.3 |
| 20260831110736 | 82 | 217 | 1.0 | 3.0 | 0.00 | 0.00 | 0.00 | 50 | 1015.2 |
| 20260831110237 | 82 | 224 | 1.0 | 3.0 | 0.00 | 0.00 | 0.00 | 50 | 1015.2 |
| 20260831105735 | 82 | 259 | 0.0 | 3.0 | 0.00 | 0.00 | 0.00 | 50 | 1015.1 |
| 20260831105453 | 82 | 219 | 0.0 | 0.0 | 0.00 | 0.00 | 0.00 | 50 | 1014.9 |
| 20260831104724 | 82 | 219 | 0.0 | 3.0 | 0.00 | 0.00 | 0.00 | 50 | 1014.7 |
| 20260831104445 | 82 | 240 | 0.0 | 3.0 | 0.00 | 0.00 | 0.00 | 50 | 1014.4 |
| 20260831103717 | 82 | 231 | 0.0 | 0.0 | 0.00 | 0.00 | 0.00 | 50 | 1014.4 |
| 20260831103213 | 82 | 11 | 0.0 | 0.0 | 0.00 | 0.00 | 0.00 | 50 | 1014.4 |
| 20260831102716 | 82 | 11 | 0.0 | 0.0 | 0.00 | 0.00 | 0.00 | 49 | 1014.4 |
| 20260831102210 | 82 | 11 | 1.0 | 3.0 | 0.00 | 0.00 | 0.00 | 49 | 1014.4 |
| 20260831101711 | 82 | 356 | 1.0 | 4.0 | 0.00 | 0.00 | 0.00 | 49 | 1014.4 |
| 20260831101210 | 82 | 84 | 2.0 | 5.0 | 0.00 | 0.00 | 0.00 | 49 | 1014.5 |
| 20260831100708 | 82 | 75 | 2.0 | 7.0 | 0.00 | 0.00 | 0.00 | 49 | 1014.5 |
| 20260831100210 | 82 | 207 | 2.0 | 7.0 | 0.00 | 0.00 | 0.00 | 49 | 1014.2 |
| 20260831095707 | 82 | 82 | 1.0 | 4.0 | 0.00 | 0.00 | 0.00 | 50 | 1014.2 |
| 20260831095208 | 82 | 139 | 1.0 | 4.0 | 0.00 | 0.00 | 0.00 | 52 | 1014.1 |
| 20260831094708 | 82 | 240 | 0.0 | 3.0 | 0.00 | 0.00 | 0.00 | 53 | 1014.1 |
| 20260831094208 | 81 | 221 | 0.0 | 0.0 | 0.00 | 0.00 | 0.00 | 53 | 1014.1 |
| 20260831093708 | 82 | 224 | 0.0 | 0.0 | 0.00 | 0.00 | 0.00 | 52 | 1014.1 |
| 20260831093206 | 82 | 224 | 0.0 | 0.0 | 0.00 | 0.00 | 0.00 | 53 | 1014.2 |
| 20260831092705 | 82 | 215 | 0.0 | 0.0 | 0.00 | 0.00 | 0.00 | 53 | 1014.2 |
| 20260831092159 | 82 | 204 | 0.0 | 0.0 | 0.00 | 0.00 | 0.00 | 53 | 1014.2 |
| 20260831091653 | 82 | 204 | 0.0 | 0.0 | 0.00 | 0.00 | 0.00 | 52 | 1014.4 |
| 20260831091145 | 82 | 204 | 0.0 | 0.0 | 0.00 | 0.00 | 0.00 | 52 | 1014.4 |
| 20260831090646 | 82 | 205 | 0.0 | 0.0 | 0.00 | 0.00 | 0.00 | 52 | 1014.4 |
| 20260831090411 | 82 | 205 | 0.0 | 2.0 | 0.00 | 0.00 | 0.00 | 51 | 1014.2 |
| 20260831085914 | 83 | 124 | 0.0 | 2.0 | 0.00 | 0.00 | 0.00 | 50 | 1014.2 |
| 20260831085146 | 83 | 107 | 0.0 | 0.0 | 0.00 | 0.00 | 0.00 | 49 | 1014.4 |
| 20260831084650 | 83 | 107 | 0.0 | 1.0 | 0.00 | 0.00 | 0.00 | 49 | 1014.4 |
| 20260831084145 | 83 | 107 | 0.0 | 1.0 | 0.00 | 0.00 | 0.00 | 49 | 1014.4 |
| 20260831083642 | 83 | 107 | 1.0 | 3.0 | 0.00 | 0.00 | 0.00 | 49 | 1014.5 |
| 20260831083142 | 83 | 99 | 1.0 | 3.0 | 0.00 | 0.00 | 0.00 | 49 | 1014.5 |
| 20260831082642 | 83 | 89 | 1.0 | 3.0 | 0.00 | 0.00 | 0.00 | 49 | 1014.5 |
| 20260831082140 | 83 | 58 | 0.0 | 2.0 | 0.00 | 0.00 | 0.00 | 50 | 1014.5 |
| 20260831081859 | 83 | 15 | 0.0 | 2.0 | 0.00 | 0.00 | 0.00 | 50 | 1014.6 |
| 20260831081139 | 83 | 15 | 0.0 | 2.0 | 0.00 | 0.00 | 0.00 | 50 | 1014.6 |
| 20260831080641 | 83 | 135 | 0.0 | 0.0 | 0.00 | 0.00 | 0.00 | 50 | 1014.6 |
| 20260831080136 | 83 | 135 | 0.0 | 0.0 | 0.00 | 0.00 | 0.00 | 49 | 1014.7 |
| 20260831075630 | 83 | 136 | 0.0 | 0.0 | 0.00 | 0.00 | 0.00 | 49 | 1014.7 |
| 20260831075130 | 84 | 135 | 0.0 | 0.0 | 0.00 | 0.00 | 0.00 | 49 | 1014.7 |
| 20260831074627 | 84 | 135 | 0.0 | 0.0 | 0.00 | 0.00 | 0.00 | 49 | 1014.7 |
| 20260831074128 | 84 | 135 | 0.0 | 0.0 | 0.00 | 0.00 | 0.00 | 49 | 1014.6 |
| 20260831073628 | 84 | 135 | 0.0 | 0.0 | 0.00 | 0.00 | 0.00 | 49 | 1014.7 |
| 20260831073126 | 84 | 135 | 0.0 | 0.0 | 0.00 | 0.00 | 0.00 | 48 | 1014.7 |
| 20260831072626 | 85 | 135 | 0.0 | 0.0 | 0.00 | 0.00 | 0.00 | 48 | 1014.6 |
| 20260831072123 | 85 | 135 | 0.0 | 0.0 | 0.00 | 0.00 | 0.00 | 46 | 1014.6 |
| 20260831071623 | 85 | 135 | 0.0 | 0.0 | 0.00 | 0.00 | 0.00 | 46 | 1014.8 |
| 20260831071346 | 85 | 135 | 0.0 | 0.0 | 0.00 | 0.00 | 0.00 | 46 | 1014.8 |
| 20260831070623 | 85 | 135 | 0.0 | 0.0 | 0.00 | 0.00 | 0.00 | 46 | 1014.8 |
| 20260831070119 | 85 | 148 | 0.0 | 0.0 | 0.00 | 0.00 | 0.00 | 45 | 1014.8 |
| 20260831065620 | 86 | 214 | 0.0 | 0.0 | 0.00 | 0.00 | 0.00 | 45 | 1014.8 |
| 20260831065115 | 86 | 215 | 0.0 | 0.0 | 0.00 | 0.00 | 0.00 | 45 | 1014.8 |
| 20260831064612 | 86 | 215 | 0.0 | 0.0 | 0.00 | 0.00 | 0.00 | 44 | 1014.8 |
| 20260831064113 | 86 | 215 | 0.0 | 0.0 | 0.00 | 0.00 | 0.00 | 44 | 1014.8 |
| 20260831063607 | 86 | 212 | 0.0 | 0.0 | 0.00 | 0.00 | 0.00 | 44 | 1014.8 |
| 20260831063108 | 86 | 212 | 0.0 | 0.0 | 0.00 | 0.00 | 0.00 | 44 | 1014.9 |
| 20260831062604 | 86 | 212 | 0.0 | 0.0 | 0.00 | 0.00 | 0.00 | 44 | 1015.0 |
| 20260831062104 | 86 | 228 | 0.0 | 2.0 | 0.00 | 0.00 | 0.00 | 44 | 1015.0 |
| 20260831061603 | 86 | 233 | 0.0 | 3.0 | 0.00 | 0.00 | 0.00 | 44 | 1014.9 |
| 20260831061319 | 86 | 229 | 1.0 | 3.0 | 0.00 | 0.00 | 0.00 | 44 | 1015.0 |
| 20260831060823 | 86 | 251 | 1.0 | 2.0 | 0.00 | 0.00 | 0.00 | 44 | 1015.1 |
| 20260831060325 | 86 | 256 | 0.0 | 2.0 | 0.00 | 0.00 | 0.00 | 43 | 1015.1 |
| 20260831055600 | 86 | 251 | 0.0 | 2.0 | 0.00 | 0.00 | 0.00 | 43 | 1014.9 |
| 20260831055321 | 87 | 259 | 0.0 | 2.0 | 0.00 | 0.00 | 0.00 | 43 | 1014.8 |
| 20260831054820 | 87 | 259 | 1.0 | 2.0 | 0.00 | 0.00 | 0.00 | 43 | 1014.8 |
| 20260831054055 | 87 | 244 | 0.0 | 2.0 | 0.00 | 0.00 | 0.00 | 42 | 1014.7 |
| 20260831053556 | 87 | 266 | 1.0 | 2.0 | 0.00 | 0.00 | 0.00 | 43 | 1014.8 |
| 20260831053055 | 87 | 254 | 1.0 | 3.0 | 0.00 | 0.00 | 0.00 | 43 | 1014.8 |
| 20260831052555 | 87 | 247 | 0.0 | 3.0 | 0.00 | 0.00 | 0.00 | 42 | 1014.8 |
| 20260831052055 | 87 | 212 | 1.0 | 2.0 | 0.00 | 0.00 | 0.00 | 42 | 1014.8 |
| 20260831051557 | 87 | 249 | 1.0 | 4.0 | 0.00 | 0.00 | 0.00 | 42 | 1014.7 |
| 20260831051055 | 87 | 253 | 1.0 | 4.0 | 0.00 | 0.00 | 0.00 | 42 | 1014.6 |
| 20260831050555 | 87 | 232 | 1.0 | 3.0 | 0.00 | 0.00 | 0.00 | 42 | 1014.6 |
| 20260831050057 | 87 | 260 | 2.0 | 5.0 | 0.00 | 0.00 | 0.00 | 41 | 1014.5 |